Weather History for Kingstree, SC

Change the Weather History Date:

Tuesday, December 25, 2012

  Actual Average Record
Temperature  
Mean Temperature 52 °F -  
Max Temperature 59 °F 59 °F 59 °F (2012)
Min Temperature 46 °F 32 °F 24 °F (2010)
Degree Days  
Heating Degree Days 12    
Growing Degree Days 2 (Base 50)    
Moisture  
Dew Point 53 °F    
Average Humidity 98    
Maximum Humidity 100    
Minimum Humidity 88    
Precipitation  
Precipitation 0.25 in - - ()
Sea Level Pressure  
Sea Level Pressure 30.02 in    
Wind  
Wind Speed 1 mph (NE)    
Max Wind Speed 6 mph    
Max Gust Speed -    
Visibility 9 miles    
Events Rain    
Averages and records for this station are not official NWS values.
T = Trace of Precipitation, MM = Missing Value Source: NWS Daily Summary

Daily Weather History Graph

Daily Weather History Graph

Search for Another Location

Airport:

Trip Planner

Search our weather history database for the weather conditions in past years. The results will help you decide how hot, cold, wet, or windy it might be!

Date:

Astronomy

Dec. 25, 2012 Rise Set
Actual Time 7:22 AM EST 5:17 PM EST
Civil Twilight 6:54 AM EST 5:45 PM EST
Nautical Twilight 6:23 AM EST 6:16 PM EST
Astronomical Twilight 5:52 AM EST 6:46 PM EST
Moon 3:22 PM EST (12/25) 4:55 AM EST (12/25)
Length of Visible Light 10h 50m
Length of Day
9h 55m
Waxing Gibbous, 93% of the Moon is Illuminated
Dec 25
Waxing Gibbous
Dec 28
Full
Jan 4
Last Quarter
Jan 11
New
Jan 18
First Quarter

Hourly Weather History & Observations

Time (EST) Temp. Dew Point Humidity Pressure Visibility Wind Dir Wind Speed Gust Speed Precip Events Conditions
12:15 AM 50.0 °F 50.0 °F 100% 29.96 in 3.0 mi Calm Calm - N/A   Clear
12:35 AM 46.4 °F 46.4 °F 100% 29.96 in 1.8 mi Calm Calm - N/A   Mist
12:55 AM 48.2 °F 48.2 °F 100% 29.96 in 1.5 mi Calm Calm - N/A   Mist
1:15 AM 48.2 °F 48.2 °F 100% 29.96 in 10.0 mi Calm Calm - N/A   Clear
1:35 AM 50.0 °F 50.0 °F 100% 29.96 in 10.0 mi Calm Calm - N/A   Clear
1:55 AM 50.0 °F 50.0 °F 100% 29.96 in 10.0 mi Calm Calm - N/A   Clear
2:15 AM 50.0 °F 50.0 °F 100% 29.96 in 10.0 mi Calm Calm - N/A   Clear
2:35 AM 50.0 °F 50.0 °F 100% 29.97 in 10.0 mi Calm Calm - N/A   Clear
2:55 AM 48.2 °F 48.2 °F 100% 29.98 in 2.0 mi South 3.5 mph - N/A   Clear
3:15 AM 50.0 °F 50.0 °F 100% 29.98 in 10.0 mi Calm Calm - N/A   Clear
3:35 AM 50.0 °F 50.0 °F 100% 29.98 in 10.0 mi Calm Calm - N/A   Clear
3:55 AM 50.0 °F 50.0 °F 100% 29.99 in 10.0 mi Calm Calm - N/A   Clear
4:15 AM 51.8 °F 51.8 °F 100% 30.00 in 10.0 mi Calm Calm - N/A   Clear
4:35 AM 51.8 °F 51.8 °F 100% 29.99 in 10.0 mi Calm Calm - N/A   Clear
4:55 AM 51.8 °F 51.8 °F 100% 29.99 in 10.0 mi Calm Calm - N/A   Clear
5:15 AM 51.8 °F 51.8 °F 100% 29.99 in 10.0 mi Calm Calm - N/A   Clear
5:55 AM 50.0 °F 50.0 °F 100% 30.02 in 7.0 mi Calm Calm - N/A   Clear
6:15 AM 50.0 °F 50.0 °F 100% 30.02 in 10.0 mi Calm Calm - N/A   Clear
6:35 AM 51.8 °F 51.8 °F 100% 30.03 in 10.0 mi Calm Calm - N/A   Clear
6:55 AM 51.8 °F 51.8 °F 100% 30.03 in 10.0 mi Calm Calm - N/A   Clear
7:15 AM 51.8 °F 51.8 °F 100% 30.03 in 10.0 mi Calm Calm - N/A   Clear
7:35 AM 51.8 °F 51.8 °F 100% 30.04 in 10.0 mi Calm Calm - N/A   Clear
7:55 AM 51.8 °F 51.8 °F 100% 30.05 in 10.0 mi Calm Calm - N/A   Clear
8:15 AM 51.8 °F 51.8 °F 100% 30.06 in 5.0 mi Calm Calm - N/A   Clear
8:35 AM 51.8 °F 51.8 °F 100% 30.06 in 10.0 mi Calm Calm - N/A   Clear
8:55 AM 51.8 °F 51.8 °F 100% 30.07 in 10.0 mi Calm Calm - N/A   Clear
9:15 AM 53.6 °F 53.6 °F 100% 30.08 in 10.0 mi Calm Calm - N/A   Clear
9:35 AM 53.6 °F 53.6 °F 100% 30.08 in 10.0 mi Calm Calm - N/A   Clear
9:55 AM 53.6 °F 53.6 °F 100% 30.10 in 7.0 mi Calm Calm - N/A   Clear
10:15 AM 53.6 °F 53.6 °F 100% 30.09 in 10.0 mi North 3.5 mph - N/A   Clear
10:35 AM 55.4 °F 55.4 °F 100% 30.09 in 10.0 mi NE 3.5 mph - N/A   Clear
10:55 AM 55.4 °F 55.4 °F 100% 30.08 in 10.0 mi North 3.5 mph - N/A   Clear
11:15 AM 55.4 °F 55.4 °F 100% 30.08 in 10.0 mi North 3.5 mph - N/A   Clear
11:35 AM 55.4 °F 55.4 °F 100% 30.07 in 10.0 mi Calm Calm - N/A   Clear
11:55 AM 55.4 °F 55.4 °F 100% 30.06 in 10.0 mi Calm Calm - N/A   Clear
12:15 PM 55.4 °F 53.6 °F 94% 30.06 in 10.0 mi Calm Calm - N/A   Clear
12:35 PM 57.2 °F 55.4 °F 94% 30.05 in 10.0 mi Calm Calm - N/A   Clear
12:55 PM 57.2 °F 53.6 °F 88% 30.04 in 10.0 mi Calm Calm - N/A   Clear
1:15 PM 57.2 °F 53.6 °F 88% 30.04 in 10.0 mi Calm Calm - N/A   Clear
1:35 PM 57.2 °F 55.4 °F 94% 30.03 in 10.0 mi ESE 4.6 mph - N/A   Clear
1:55 PM 57.2 °F 55.4 °F 94% 30.04 in 10.0 mi ENE 4.6 mph - N/A   Clear
2:35 PM 57.2 °F 55.4 °F 94% 30.02 in 10.0 mi Calm Calm - N/A   Clear
2:55 PM 59.0 °F 55.4 °F 88% 30.02 in 10.0 mi Calm Calm - N/A   Clear
3:15 PM 57.2 °F 55.4 °F 94% 30.03 in 10.0 mi Calm Calm - N/A   Clear
3:35 PM 57.2 °F 55.4 °F 94% 30.04 in 10.0 mi Calm Calm - N/A   Clear
3:55 PM 57.2 °F 53.6 °F 88% 30.02 in 10.0 mi Calm Calm - N/A   Clear
4:15 PM 57.2 °F 53.6 °F 88% 30.02 in 10.0 mi NE 3.5 mph - N/A   Clear
4:35 PM 57.2 °F 53.6 °F 88% 30.02 in 10.0 mi Calm Calm - N/A   Clear
4:55 PM 55.4 °F 53.6 °F 94% 30.02 in 10.0 mi ENE 3.5 mph - N/A   Clear
5:15 PM 55.4 °F 53.6 °F 94% 30.01 in 10.0 mi Calm Calm - N/A   Clear
5:55 PM 55.4 °F 53.6 °F 94% 30.01 in 10.0 mi Calm Calm - N/A   Clear
6:15 PM 55.4 °F 53.6 °F 94% 30.01 in 10.0 mi Calm Calm - N/A Rain Light Rain
6:35 PM 55.4 °F 53.6 °F 94% 30.03 in 10.0 mi Calm Calm - 0.01 in Rain Light Rain
6:55 PM 53.6 °F 53.6 °F 100% 30.04 in 7.0 mi Calm Calm - 0.03 in Rain Rain
7:15 PM 53.6 °F 53.6 °F 100% 30.06 in 7.0 mi NNW 3.5 mph - 0.02 in Rain Rain
7:35 PM 53.6 °F 53.6 °F 100% 30.10 in 4.0 mi Calm Calm - 0.08 in Rain Heavy Rain
7:55 PM 53.6 °F 53.6 °F 100% 30.06 in 4.0 mi NNE 4.6 mph - 0.16 in Rain Heavy Rain
8:15 PM 53.6 °F 53.6 °F 100% 30.07 in 10.0 mi Calm Calm - 0.01 in Rain Light Rain
8:35 PM 53.6 °F 53.6 °F 100% 30.06 in 5.0 mi North 3.5 mph - 0.03 in Rain Heavy Rain
8:55 PM 53.6 °F 53.6 °F 100% 30.04 in 7.0 mi North 4.6 mph - 0.05 in Rain Light Rain
9:15 PM 53.6 °F 53.6 °F 100% 30.04 in 7.0 mi Calm Calm - 0.01 in Rain Light Rain
9:35 PM 53.6 °F 53.6 °F 100% 30.01 in 7.0 mi ENE 4.6 mph - 0.01 in Rain Rain
9:55 PM 53.6 °F 53.6 °F 100% 30.00 in 10.0 mi ENE 5.8 mph - 0.01 in   Clear
10:15 PM 53.6 °F 53.6 °F 100% 30.00 in 10.0 mi NE 4.6 mph - N/A   Clear
10:35 PM 53.6 °F 53.6 °F 100% 30.01 in 10.0 mi East 4.6 mph - N/A   Clear
11:15 PM 53.6 °F 53.6 °F 100% 29.98 in 10.0 mi East 5.8 mph - N/A   Clear
11:35 PM 53.6 °F 53.6 °F 100% 29.98 in 10.0 mi East 3.5 mph - N/A   Clear
11:55 PM 53.6 °F 53.6 °F 100% 29.96 in 10.0 mi ENE 4.6 mph - N/A   Clear